Regional Weather Roundup
Issued by NWS

Home | Current Version | Previous Version | Text Only | Print | Product List | Glossary Off
Versions: 1 2 3 4 5 6 7 8 9 10 11 12 13 14 15 16 17 18 19 20 21 22 23 24 25 26 27 28 29 30 31 32 33 34 35 36 37 38 39 40 41 42 43 44 45 46 47 48 49 50

000
ASUS43 KDMX 220306
RWRIA

WEATHER ROUNDUP FOR IOWA
NATIONAL WEATHER SERVICE DES MOINES IA
900 PM CST TUE NOV 21 2017

NOTE: "FAIR" INDICATES FEW OR NO CLOUDS BELOW 12,000 FEET WITH NO
SIGNIFICANT WEATHER AND/OR OBSTRUCTIONS TO VISIBILITY.

* - THESE STATIONS ARE NOT NWS STATIONS...THUS NOT UNDER NWS
QUALITY CONTROL.  THEY ALSO DO NOT REPORT WEATHER SUCH
AS PRECIPITATION OR FOG.

IAZ001>003-012>014-020>022-031>034-043>046-220400-
   NORTHWEST IOWA

CITY           SKY/WX    TMP DP  RH WIND       PRES   REMARKS
CARROLL *      CLOUDY    23  12  63 NW13      30.36R WCI  11
CHEROKEE *     CLOUDY    21  10  63 CALM      30.37F
DENISON *      CLOUDY    21  10  63 NW7       30.39F WCI  13
LE MARS *      CLOUDY    19   9  63 N3        30.38F
ORANGE CITY *  CLOUDY    21  10  63 NW8       30.34F WCI  12
SHELDON *      CLOUDY    18   9  68 NW8       30.32F WCI   7
SIOUX CITY     CLOUDY    22   9  57 N10       30.39F WCI  11
SPENCER        CLOUDY    15   8  73 NW7       30.34F WCI   5
STORM LAKE *   CLOUDY    21  10  63 NW10      30.33F WCI  10
$$

IAZ055>058-069>071-079>083-090>094-220400-
   SOUTHWEST IOWA

CITY           SKY/WX    TMP DP  RH WIND       PRES   REMARKS
ATLANTIC *     CLOUDY    23  14  68 NW12      30.38R WCI  12
AUDUBON *      CLOUDY    21  12  68 CALM      30.37R
CLARINDA *     CLOUDY    27  14  59 NW10      30.41R WCI  17
COUNCIL BLFS * CLOUDY    25  12  58 NW13G22   30.39R WCI  13
CRESTON *      CLOUDY    21  14  73 NW9       30.36R WCI  11
HARLAN  *      CLOUDY    21  12  68 N8        30.42R WCI  12
LAMONI         CLEAR     25  14  63 NW10      30.32S WCI  15
RED OAK *      CLOUDY    23  14  68 NW12      30.40R WCI  12
SHENANDOAH *   CLOUDY    25  14  63 NW7       30.42R WCI  17
$$

IAZ047>049-059>061-072>074-084-220400-
   CENTRAL IOWA

CITY           SKY/WX    TMP DP  RH WIND       PRES   REMARKS
AMES           CLEAR     24  12  60 N16       30.34R WCI  11
ANKENY *       CLEAR     25  12  58 NW10      30.36R WCI  15
BOONE *        CLEAR     23  10  58 NW15G21   30.33R WCI  10
CHARITON *     CLEAR     25  12  58 NW12      30.32R WCI  14
DES MOINES     CLEAR     26  11  52 NW10      30.35R WCI  16
GRINNELL*      CLEAR     21  15  76 NW8       30.31R WCI  11
KNOXVILLE *    CLEAR     25  12  58 NW8       30.31S WCI  16
MARSHALLTOWN   CLEAR     21  14  74 NW12      30.31R WCI   9
NEWTON *       CLEAR     23  12  63 NW14      30.33R WCI  11
PELLA *        CLEAR     24  14  64 NW8       30.34R WCI  16
PERRY *          N/A     23  11  61 NW10      30.38R WCI  12
$$

IAZ004>006-015-016-023>025-035-036-220400-
   NORTH CENTRAL IOWA

CITY           SKY/WX    TMP DP  RH WIND       PRES   REMARKS
ALGONA *       CLOUDY    21  12  68 NW12      30.33R WCI   9
CLARION *      CLEAR     19  12  73 NW12      30.34R WCI   7
ESTHERVILLE    CLOUDY    19  10  68 NW13      30.33S WCI   6
FORT DODGE *   CLOUDY    21  12  68 NW7       30.36R WCI  12
MASON CITY     CLEAR     20  10  65 NW9       30.32R WCI   9
FOREST CITY *    N/A     21  14  73 NW10      30.32R WCI  10
WEBSTER CITY * CLEAR     21  10  63 NW16      30.33R WCI   7
IOWA FALLS *     N/A     23  14  69 NW14G20   30.32R WCI  10
$$

IAZ007>011-017>019-026>030-037>042-050>054-066-220400-
   NORTHEAST IOWA

CITY           SKY/WX    TMP DP  RH WIND       PRES   REMARKS
CEDAR RAPIDS   CLEAR     22  15  75 NW9       30.27R WCI  12
CHARLES CITY * CLEAR     21  12  68 NW13      30.28R WCI   9
CLINTON *      CLEAR     21  16  81 NW9       30.26R WCI  11
DECORAH *      CLEAR     21  12  68 NW7       30.24R WCI  13
DUBUQUE        CLEAR     23  14  68 N9        30.23R WCI  13
MONTICELLO *   CLEAR     25  16  68 NW12      30.26R WCI  14
OELWEIN *      CLEAR     21  16  79 NW13      30.27R WCI   9
WATERLOO       CLEAR     21  12  68 NW8       30.29R WCI  11
$$

IAZ064-065-067-068-078-220400-
   EAST CENTRAL IOWA

CITY           SKY/WX    TMP DP  RH WIND       PRES   REMARKS
DAVENPORT      CLEAR     25  18  74 NW9       30.27R WCI  15
IOWA CITY      CLEAR     27  16  63 NW10      30.30R WCI  17
MT. PLEASANT * CLEAR     27  16  64 NW7       30.30R WCI  19
MUSCATINE *    CLEAR     27  18  69 NW9       30.29R WCI  17
QUAD CITIES    CLEAR     28  17  63 NW12      30.26R WCI  18
$$

IAZ062-063-075>077-085>089-095>099-220400-
   SOUTHEAST IOWA

CITY           SKY/WX    TMP DP  RH WIND       PRES   REMARKS
BURLINGTON     CLEAR     28  19  69 NW9       30.27R WCI  19
FAIRFIELD *    CLEAR     25  14  63 NW10      30.30R WCI  15
FORT MADISON * CLEAR     27  19  74 NW8       30.29R WCI  18
KEOKUK *       CLEAR     28  19  69 N6        30.28S WCI  22
OSKALOOSA *      N/A     24  15  69 NW12      30.32R WCI  13
OTTUMWA        CLEAR     25  14  63 NW14      30.31R WCI  13
WASHINGTON *   CLEAR     25  18  74 NW10      30.30R WCI  15
$$

ABBREVIATIONS USED IN REMARKS
   TC - TEMPERATURES IN CELSIUS
  WCI - WIND CHILL INDEX
   HX - HEAT INDEX
  VSB - VISIBILITY
$$




USA.gov is the U.S. government's official web portal to all federal, state and local government web resources and services.